SCP
0 0 -0 -0 -0 0 -0 0 0 0 0 0 0 0 0 0 0 0 0 0 1 0 0 0 0 0 0 0 0 0 0 0 0 0 0 0 0 0 0 0 0 0 0 0
0 0 0 -0 0 0 -0 -0 0 0 0 0 0 0 0 0 0 0 0 0 0 0 0 0 0 0 0 0 0 0 0 0 0 0 0 0 0 0 0 0 0 0 0 0
0 0 -0 0 0 0 0 -0 0 0 0 0 0 0 0 0 0 0 0 0 0 0 0 0 0 0 0 0 0 0 0 0 0 0 0 0 0 0 0 0 0 0 0 0
0 0 0 0 0 0 0 0 0 0 -0 -0 -0 0 0 0 -0 0 0 0 0 0 0 0 0 0 0 0 0 0 0 0 0 0 0 0 0 0 0 0 0 0 0 0
0 0 0 0 0 0 0 0 0 0 -0 -0 -0 -0 0 -0 -0 -0 0 0 0 0 0 0 0 0 0 0 0 0 0 0 0 0 0 0 0 0 0 0 0 0 0 0
0 0 0 0 0 0 0 0 -0 -0 -0 -0 -0 0 0 -0 -0 -0 -0 0 0 0 0 0 0 0 0 0 0 0 0 0 0 0 0 0 0 0 0 0 0 0 0 0
0 0 0 0 0 0 0 0 -0 -0 -0 -0 0 0 -0 -0 -0 -0 0 0 0 0 0 0 0 0 0 0 0 0 0 0 0 0 0 0 0 0 0 0 0 0 0 0
0 0 0 0 0 0 0 0 0 0 -0 -0 -0 -0 -0 -0 0 0 0 0 0 0 0 0 0 0 0 0 0 0 0 0 0 0 0 0 0 0 0 0 0 0 0 0
0 0 0 0 0 0 0 0 0 0 0 -0 -0 -0 -0 0 0 0 0 0 0 0 0 0 0 0 0 0 0 0 0 0 0 0 0 0 0 0 0 0 0 0 0 0
0 0 0 0 0 0 0 0 0 0 0 -0 -0 0 0 0 0 0 0 0 0 0 0 0 0 0 0 0 0 0 0 0 0 0 0 0 0 0 0 0 0 0 0 0
0 0 0 0 0 0 0 0 0 0 0 0 0 0 0 0 0 0 0 0 0 0 0 0 0 0 0 0 0 0 0 0 0 0 0 0 0 0 0 0 0 0 0 0
0 0 0 0 0 0 0 -0 -0 -0 0 0 0 0 0 0 0 0 0 0 0 0 0 0 0 0 0 0 0 0 0 0 0 0 0 0 0 0 0 0 0 -0 0 0
0 0 0 -0 0 0 -0 -0 -0 -0 -0 -0 0 0 0 0 0 0 0 0 0 0 0 0 0 0 0 0 0 0 0 0 0 0 0 0 0 0 0 0 -0 -0 -0 -0
0 0 0 0 -0 0 0 0 0 -0 -0 0 0 0 0 0 0 0 0 0 0 0 0 0 0 0 0 0 0 0 0 0 0 0 0 0 0 0 0 0 0 0 0 0
0 0 0 -0 -0 -0 0 0 0 0 0 0 0 0 0 0 0 0 0 0 0 0 0 0 0 0 0 0 0 0 0 0 0 0 0 0 0 0 0 0 0 0 0 0
0 0 0 0 0 0 0 0 0 0 0 0 0 0 0 0 0 0 0 0 0 0 0 0 0 0 0 0 0 -0 0 0 0 0 0 0 0 0 0 0 0 0 0 0
0 0 0 0 0 0 0 0 0 0 0 0 0 0 0 0 0 0 0 0 0 0 0 0 0 0 0 0 0 0 -0 0 0 0 0 0 0 0 0 0 0 0 0 -0
0 0 0 0 0 0 0 0 0 0 0 0 0 0 0 0 0 0 0 0 0 0 0 0 0 0 0 0 0 0 -0 -0 0 0 0 0 0 0 0 0 0 0 0 -0
0 -0 -0 -0 0 0 0 0 0 0 0 0 0 0 0 0 0 0 0 0 0 0 0 0 0 0 0 0 -0 0 0 0 0 0 0 0 0 0 0 0 0 0 -0 -0
-0 -0 -0 -0 -0 -0 -0 0 0 0 0 0 0 0 0 0 0 0 0 0 0 0 0 0 0 0 0 0 -0 0 0 0 0 0 0 -0 0 0 0 0 0 -0 -0 -0
-0 -0 -0 0 0 0 0 0 0 0 0 0 0 0 0 0 0 0 0 0 0 0 0 0 0 0 0 -0 -0 0 0 0 0 0 0 -0 -0 -0 0 0 0 0 -0 -0
-0 -0 0 0 0 0 0 0 0 0 0 0 0 0 0 0 0 0 0 0 0 0 0 0 0 0 -0 -0 0 0 0 0 0 0 0 -0 -0 0 0 0 0 0 0 -0
0 0 0 0 0 0 0 0 0 0 0 0 0 0 0 0 0 0 0 0 0 0 0 0 0 -0 -0 -0 0 0 0 0 0 -0 0 -0 0 0 0 0 0 0 0 -0
0 0 0 0 0 0 0 0 0 0 0 0 0 0 0 0 0 0 0 0 0 0 0 0 0 -0 -0 0 0 0 0 0 0 0 -0 -0 -0 0 0 0 0 0 -0 -0
0 0 0 0 0 0 0 0 0 0 0 0 0 0 0 0 0 0 0 0 0 0 0 0 0 0 0 0 0 0 0 0 0 -0 0 0 -0 0 0 0 -0 -0 -0 -0
0 0 0 0 0 0 0 0 0 0 0 0 0 0 0 0 0 0 0 0 0 0 0 0 0 0 0 0 0 0 0 0 0 0 -0 -0 -0 -0 -0 -0 -0 -0 -0 -0
0 0 0 0 0 0 0 0 0 0 0 0 0 0 0 0 0 0 0 0 0 0 0 0 0 0 0 0 0 0 0 0 0 -0 0 -0 -0 -0 -0 -0 -0 -0 -0 -0
Wind_Speed_500mb
16 33 35 37 35 34 32 26 17 13 14 4 18 10 7 10 13 19 24 28 40 45 44 39 35 32 27 22 15 11 9 12 23 29 33 40 46 51 56 61 62 64 67 70
20 22 26 28 37 38 38 30 23 14 5 13 24 20 20 21 28 28 31 36 40 46 41 37 31 27 22 16 11 10 11 12 24 32 40 47 53 58 62 63 67 70 69 56
16 17 24 22 24 28 31 29 22 21 11 30 24 23 26 33 35 33 40 39 40 38 34 32 28 21 16 11 9 9 14 23 30 39 43 47 52 55 57 61 63 58 52 43
15 13 24 16 4 7 19 14 7 7 28 33 33 37 36 33 39 41 35 34 34 35 31 25 19 13 7 5 11 16 20 26 34 41 46 50 52 52 55 53 50 41 36 32
11 18 6 13 10 12 19 17 7 23 35 45 50 55 39 31 32 38 37 32 37 35 28 22 11 4 2 10 18 26 32 40 43 47 47 48 46 47 44 40 35 32 29 29
12 17 14 12 18 9 5 17 26 32 38 48 51 18 16 32 35 36 36 35 29 20 15 6 1 8 16 23 28 33 37 39 39 38 39 38 36 35 33 31 30 30 33 30
18 17 10 9 17 15 16 5 31 39 47 48 17 13 52 40 36 33 30 26 20 16 9 2 10 15 17 20 24 31 32 33 31 32 34 31 31 30 29 29 31 32 30 30
19 21 18 16 18 15 12 25 33 38 45 41 51 57 52 42 37 30 27 21 16 14 8 6 9 10 13 16 24 29 31 28 28 28 28 26 29 28 27 29 31 31 28 27
9 8 10 5 11 14 15 35 38 42 40 52 57 55 48 40 33 25 20 17 15 13 12 13 15 16 15 22 28 29 26 24 25 27 25 27 26 26 27 29 30 29 27 31
17 9 15 14 18 23 32 39 42 46 51 52 58 48 43 36 30 24 19 17 15 14 15 15 17 19 21 26 28 26 24 25 26 26 26 23 24 25 26 28 31 30 33 34
9 14 25 20 28 38 48 51 54 50 50 53 51 43 37 32 27 24 20 17 16 15 15 16 16 20 25 27 28 29 28 28 29 27 25 25 23 27 25 23 31 34 35 39
8 40 8 38 41 47 56 58 56 59 52 43 41 41 34 31 27 24 20 16 16 16 15 15 18 22 26 28 29 29 30 30 30 29 27 26 28 27 27 29 24 26 29 34
20 33 49 58 49 48 57 55 53 51 46 47 38 37 33 32 27 26 20 17 15 13 14 17 20 23 25 26 27 27 27 28 29 29 28 31 30 29 32 29 21 32 30 27
53 77 65 61 59 48 51 51 50 46 42 40 38 34 31 30 26 21 19 14 10 12 14 17 19 20 23 25 25 24 24 26 27 27 28 26 26 27 28 30 30 27 24 29
54 34 71 69 63 54 47 45 46 43 40 37 31 30 27 25 22 18 13 9 8 9 10 13 14 17 20 22 23 23 22 23 22 23 24 24 23 25 28 29 31 31 32 32
62 64 62 62 56 49 44 39 44 40 35 32 29 27 24 21 19 15 9 7 6 6 6 8 12 15 19 19 21 22 21 22 22 23 25 26 26 28 30 31 32 31 32 40
67 55 55 52 49 44 39 35 38 37 35 29 28 25 22 19 17 16 11 7 7 6 7 8 11 15 18 19 22 23 22 22 26 19 20 22 24 29 31 30 35 34 32 38
44 49 44 51 48 45 40 38 36 35 33 30 27 22 18 15 15 14 10 8 7 8 8 8 11 15 17 19 19 22 20 20 21 22 21 24 25 25 27 29 32 36 37 39
47 49 45 42 38 39 39 38 34 33 32 29 25 21 19 18 17 15 12 8 10 11 10 12 14 15 20 22 22 19 19 19 21 22 22 26 25 26 29 31 32 33 34 37
48 46 43 42 39 39 40 36 35 32 28 26 25 22 20 19 17 17 15 16 18 17 17 15 15 20 21 21 27 15 18 20 22 22 26 24 26 28 29 32 33 33 35 37
49 46 44 41 39 36 35 35 33 31 28 25 23 21 20 20 18 15 12 9 17 18 17 20 20 19 18 18 19 16 19 21 22 23 24 26 27 28 30 31 32 34 37 37
45 43 41 39 38 38 34 32 30 30 28 27 25 23 22 22 21 22 19 18 18 16 18 16 17 20 20 22 14 18 20 20 21 22 25 26 28 30 31 32 33 34 36 38
42 40 39 38 39 39 36 33 31 29 28 25 24 23 21 20 18 17 15 16 16 14 16 15 15 17 18 15 16 20 21 22 23 24 26 27 27 28 29 32 33 33 35 40
42 38 37 38 39 38 37 33 30 28 28 27 27 25 23 21 19 17 16 15 13 13 13 12 14 14 18 13 15 19 22 23 25 26 26 30 28 28 31 33 34 36 34 39
40 39 38 39 39 36 36 35 32 30 28 26 24 21 19 15 15 19 22 18 15 16 12 11 12 12 15 15 16 18 19 24 27 26 28 30 32 30 32 34 36 40 38 40
38 36 35 34 32 35 34 32 27 26 24 22 20 17 17 16 15 18 19 18 19 20 19 15 12 12 14 15 16 17 18 21 23 24 28 29 32 34 35 37 39 42 43 45
34 35 34 32 32 32 31 28 25 23 23 20 20 19 18 15 13 10 9 12 15 18 21 21 16 14 14 15 15 15 16 18 22 24 25 28 31 33 35 37 40 42 45 46
Wind_Direction_500mb
167 155 177 190 193 205 205 210 236 174 205 101 141 129 83 101 125 134 140 153 148 141 147 145 140 134 134 132 137 151 172 229 256 268 277 284 288 294 298 299 300 301 302 303
129 168 196 200 204 202 211 214 227 250 202 90 107 122 103 98 98 121 128 126 136 133 132 126 120 117 132 148 160 194 223 259 271 278 285 289 293 296 298 300 302 303 305 307
127 170 179 185 192 199 210 225 230 226 146 127 118 101 96 103 117 107 105 106 114 119 112 103 106 114 131 155 200 242 269 283 287 290 292 294 298 300 301 302 305 307 311 313
143 171 202 79 115 186 200 209 184 104 130 120 114 104 98 113 120 111 110 112 108 101 103 107 113 115 136 221 261 278 290 293 295 296 296 299 301 304 304 307 311 312 315 317
162 195 86 149 167 175 189 162 179 140 120 131 127 107 87 102 113 123 116 113 109 115 120 130 149 148 271 291 294 296 296 296 297 298 301 303 307 307 310 312 311 311 314 313
200 190 203 154 146 183 179 221 172 160 154 155 163 139 122 121 116 111 114 119 120 116 96 95 112 302 310 304 302 297 297 301 305 307 307 309 311 313 314 311 312 310 314 318
204 210 206 91 153 163 217 94 159 161 160 164 171 89 139 131 119 113 109 105 102 98 104 285 299 307 314 312 311 308 313 314 313 313 314 315 315 316 317 317 310 319 317 317
221 211 223 159 157 214 78 126 149 150 157 125 120 122 129 129 121 114 108 103 94 79 55 1 344 354 355 342 324 321 323 327 326 325 325 322 322 327 318 317 318 319 325 318
227 193 108 111 48 114 123 135 145 137 139 137 131 131 131 127 119 111 103 94 88 86 71 46 27 15 5 337 338 340 341 337 335 335 332 331 327 321 321 321 324 324 321 320
179 97 116 109 111 122 126 132 137 140 137 135 132 132 129 127 121 115 106 96 92 84 69 48 29 16 2 357 355 353 349 342 339 338 340 332 328 333 329 325 323 319 320 322
95 131 117 110 123 127 125 127 127 128 131 132 132 130 129 126 119 113 104 93 89 81 67 46 29 12 8 5 5 6 3 356 356 352 345 349 341 334 335 332 317 315 317 318
188 162 172 133 131 131 127 127 128 127 125 126 129 129 129 120 115 110 104 97 85 72 58 40 26 17 12 9 8 7 6 2 4 1 0 352 352 341 340 332 336 336 330 324
144 138 129 128 125 129 125 125 125 124 126 125 124 125 123 120 116 110 102 93 82 67 50 37 29 21 14 9 7 5 1 359 359 1 2 0 356 347 342 353 354 341 341 340
139 130 119 126 126 125 121 120 118 117 117 119 121 120 119 114 110 105 94 92 85 64 51 44 33 25 19 16 10 3 4 3 1 1 359 356 353 347 350 346 347 351 346 349
139 129 125 124 121 118 119 123 117 116 118 117 117 117 115 112 107 101 100 104 85 66 47 37 25 16 13 16 13 4 3 359 4 4 359 5 354 355 358 355 354 353 351 359
123 119 120 117 120 124 127 126 122 122 122 123 121 117 118 117 114 109 97 92 85 62 48 30 21 13 10 16 16 7 355 355 6 5 2 5 8 11 6 6 0 359 360 357
122 122 123 126 129 128 127 128 128 129 129 129 128 127 124 119 114 106 99 93 87 58 45 30 23 16 15 17 18 15 7 6 8 6 6 3 2 6 5 8 2 4 3 6
130 131 133 131 131 130 128 128 129 129 132 134 132 133 130 127 125 114 112 98 87 62 46 40 36 27 24 26 35 17 18 13 10 11 11 10 13 7 6 6 5 3 3 6
129 126 126 126 128 130 130 132 134 135 133 134 133 133 130 130 128 117 107 104 98 76 70 63 50 44 43 34 52 16 21 22 19 19 19 17 16 12 10 10 8 4 4 4
126 127 127 128 131 134 135 135 133 132 134 135 138 131 127 130 131 118 113 104 95 89 80 69 61 53 47 39 58 22 30 27 28 23 20 25 17 14 14 10 11 7 7 7
133 132 131 130 130 132 134 137 137 134 137 139 139 140 136 133 126 125 125 109 93 86 82 67 56 52 39 48 38 26 33 27 26 21 20 19 15 14 15 11 11 7 7 6
139 137 135 134 135 134 135 135 136 135 138 140 138 135 128 123 126 131 124 112 94 85 76 62 53 47 45 53 27 34 33 31 23 20 17 16 14 12 12 9 11 6 5 7
142 141 140 140 141 139 137 136 135 133 131 133 135 140 143 136 133 131 117 104 94 79 71 58 47 42 47 38 34 38 38 31 28 25 18 24 13 11 6 6 9 5 5 8
142 143 142 142 142 141 140 139 135 133 133 132 129 125 123 121 114 116 110 97 83 71 58 47 42 42 58 39 38 36 39 31 29 25 23 25 17 14 9 11 8 9 7 7
145 144 144 147 148 149 146 143 142 140 138 136 131 125 119 111 104 99 93 82 65 61 43 41 41 44 58 47 43 40 34 28 29 26 25 24 23 19 14 14 11 13 11 9
144 147 151 149 153 155 155 153 152 151 149 144 140 138 137 132 112 91 85 76 62 53 46 42 41 45 49 50 44 40 36 27 27 23 25 25 24 22 21 20 20 19 17 14
143 144 146 150 153 156 160 161 159 163 159 162 154 159 154 151 143 123 98 74 57 46 39 36 35 39 42 42 41 35 35 26 25 26 24 25 25 25 24 24 24 21 19 17
Wind_Speed_850mb
16 33 35 37 35 34 32 26 17 13 14 4 18 10 7 10 13 19 24 28 40 45 44 39 35 32 27 22 15 11 9 12 23 29 33 40 46 51 56 61 62 64 67 70
20 22 26 28 37 38 38 30 23 14 5 13 24 20 20 21 28 28 31 36 40 46 41 37 31 27 22 16 11 10 11 12 24 32 40 47 53 58 62 63 67 70 69 56
16 17 24 22 24 28 31 29 22 21 11 30 24 23 26 33 35 33 40 39 40 38 34 32 28 21 16 11 9 9 14 23 30 39 43 47 52 55 57 61 63 58 52 43
15 13 24 16 4 7 19 14 7 7 28 33 33 37 36 33 39 41 35 34 34 35 31 25 19 13 7 5 11 16 20 26 34 41 46 50 52 52 55 53 50 41 36 32
11 18 6 13 10 12 19 17 7 23 35 45 50 55 39 31 32 38 37 32 37 35 28 22 11 4 2 10 18 26 32 40 43 47 47 48 46 47 44 40 35 32 29 29
12 17 14 12 18 9 5 17 26 32 38 48 51 18 16 32 35 36 36 35 29 20 15 6 1 8 16 23 28 33 37 39 39 38 39 38 36 35 33 31 30 30 33 30
18 17 10 9 17 15 16 5 31 39 47 48 17 13 52 40 36 33 30 26 20 16 9 2 10 15 17 20 24 31 32 33 31 32 34 31 31 30 29 29 31 32 30 30
19 21 18 16 18 15 12 25 33 38 45 41 51 57 52 42 37 30 27 21 16 14 8 6 9 10 13 16 24 29 31 28 28 28 28 26 29 28 27 29 31 31 28 27
9 8 10 5 11 14 15 35 38 42 40 52 57 55 48 40 33 25 20 17 15 13 12 13 15 16 15 22 28 29 26 24 25 27 25 27 26 26 27 29 30 29 27 31
17 9 15 14 18 23 32 39 42 46 51 52 58 48 43 36 30 24 19 17 15 14 15 15 17 19 21 26 28 26 24 25 26 26 26 23 24 25 26 28 31 30 33 34
9 14 25 20 28 38 48 51 54 50 50 53 51 43 37 32 27 24 20 17 16 15 15 16 16 20 25 27 28 29 28 28 29 27 25 25 23 27 25 23 31 34 35 39
8 40 8 38 41 47 56 58 56 59 52 43 41 41 34 31 27 24 20 16 16 16 15 15 18 22 26 28 29 29 30 30 30 29 27 26 28 27 27 29 24 26 29 34
20 33 49 58 49 48 57 55 53 51 46 47 38 37 33 32 27 26 20 17 15 13 14 17 20 23 25 26 27 27 27 28 29 29 28 31 30 29 32 29 21 32 30 27
53 77 65 61 59 48 51 51 50 46 42 40 38 34 31 30 26 21 19 14 10 12 14 17 19 20 23 25 25 24 24 26 27 27 28 26 26 27 28 30 30 27 24 29
54 34 71 69 63 54 47 45 46 43 40 37 31 30 27 25 22 18 13 9 8 9 10 13 14 17 20 22 23 23 22 23 22 23 24 24 23 25 28 29 31 31 32 32
62 64 62 62 56 49 44 39 44 40 35 32 29 27 24 21 19 15 9 7 6 6 6 8 12 15 19 19 21 22 21 22 22 23 25 26 26 28 30 31 32 31 32 40
67 55 55 52 49 44 39 35 38 37 35 29 28 25 22 19 17 16 11 7 7 6 7 8 11 15 18 19 22 23 22 22 26 19 20 22 24 29 31 30 35 34 32 38
44 49 44 51 48 45 40 38 36 35 33 30 27 22 18 15 15 14 10 8 7 8 8 8 11 15 17 19 19 22 20 20 21 22 21 24 25 25 27 29 32 36 37 39
47 49 45 42 38 39 39 38 34 33 32 29 25 21 19 18 17 15 12 8 10 11 10 12 14 15 20 22 22 19 19 19 21 22 22 26 25 26 29 31 32 33 34 37
48 46 43 42 39 39 40 36 35 32 28 26 25 22 20 19 17 17 15 16 18 17 17 15 15 20 21 21 27 15 18 20 22 22 26 24 26 28 29 32 33 33 35 37
49 46 44 41 39 36 35 35 33 31 28 25 23 21 20 20 18 15 12 9 17 18 17 20 20 19 18 18 19 16 19 21 22 23 24 26 27 28 30 31 32 34 37 37
45 43 41 39 38 38 34 32 30 30 28 27 25 23 22 22 21 22 19 18 18 16 18 16 17 20 20 22 14 18 20 20 21 22 25 26 28 30 31 32 33 34 36 38
42 40 39 38 39 39 36 33 31 29 28 25 24 23 21 20 18 17 15 16 16 14 16 15 15 17 18 15 16 20 21 22 23 24 26 27 27 28 29 32 33 33 35 40
42 38 37 38 39 38 37 33 30 28 28 27 27 25 23 21 19 17 16 15 13 13 13 12 14 14 18 13 15 19 22 23 25 26 26 30 28 28 31 33 34 36 34 39
40 39 38 39 39 36 36 35 32 30 28 26 24 21 19 15 15 19 22 18 15 16 12 11 12 12 15 15 16 18 19 24 27 26 28 30 32 30 32 34 36 40 38 40
38 36 35 34 32 35 34 32 27 26 24 22 20 17 17 16 15 18 19 18 19 20 19 15 12 12 14 15 16 17 18 21 23 24 28 29 32 34 35 37 39 42 43 45
34 35 34 32 32 32 31 28 25 23 23 20 20 19 18 15 13 10 9 12 15 18 21 21 16 14 14 15 15 15 16 18 22 24 25 28 31 33 35 37 40 42 45 46
Wind_Direction_850mb
167 155 177 190 193 205 205 210 236 174 205 101 141 129 83 101 125 134 140 153 148 141 147 145 140 134 134 132 137 151 172 229 256 268 277 284 288 294 298 299 300 301 302 303
129 168 196 200 204 202 211 214 227 250 202 90 107 122 103 98 98 121 128 126 136 133 132 126 120 117 132 148 160 194 223 259 271 278 285 289 293 296 298 300 302 303 305 307
127 170 179 185 192 199 210 225 230 226 146 127 118 101 96 103 117 107 105 106 114 119 112 103 106 114 131 155 200 242 269 283 287 290 292 294 298 300 301 302 305 307 311 313
143 171 202 79 115 186 200 209 184 104 130 120 114 104 98 113 120 111 110 112 108 101 103 107 113 115 136 221 261 278 290 293 295 296 296 299 301 304 304 307 311 312 315 317
162 195 86 149 167 175 189 162 179 140 120 131 127 107 87 102 113 123 116 113 109 115 120 130 149 148 271 291 294 296 296 296 297 298 301 303 307 307 310 312 311 311 314 313
200 190 203 154 146 183 179 221 172 160 154 155 163 139 122 121 116 111 114 119 120 116 96 95 112 302 310 304 302 297 297 301 305 307 307 309 311 313 314 311 312 310 314 318
204 210 206 91 153 163 217 94 159 161 160 164 171 89 139 131 119 113 109 105 102 98 104 285 299 307 314 312 311 308 313 314 313 313 314 315 315 316 317 317 310 319 317 317
221 211 223 159 157 214 78 126 149 150 157 125 120 122 129 129 121 114 108 103 94 79 55 1 344 354 355 342 324 321 323 327 326 325 325 322 322 327 318 317 318 319 325 318
227 193 108 111 48 114 123 135 145 137 139 137 131 131 131 127 119 111 103 94 88 86 71 46 27 15 5 337 338 340 341 337 335 335 332 331 327 321 321 321 324 324 321 320
179 97 116 109 111 122 126 132 137 140 137 135 132 132 129 127 121 115 106 96 92 84 69 48 29 16 2 357 355 353 349 342 339 338 340 332 328 333 329 325 323 319 320 322
95 131 117 110 123 127 125 127 127 128 131 132 132 130 129 126 119 113 104 93 89 81 67 46 29 12 8 5 5 6 3 356 356 352 345 349 341 334 335 332 317 315 317 318
188 162 172 133 131 131 127 127 128 127 125 126 129 129 129 120 115 110 104 97 85 72 58 40 26 17 12 9 8 7 6 2 4 1 0 352 352 341 340 332 336 336 330 324
144 138 129 128 125 129 125 125 125 124 126 125 124 125 123 120 116 110 102 93 82 67 50 37 29 21 14 9 7 5 1 359 359 1 2 0 356 347 342 353 354 341 341 340
139 130 119 126 126 125 121 120 118 117 117 119 121 120 119 114 110 105 94 92 85 64 51 44 33 25 19 16 10 3 4 3 1 1 359 356 353 347 350 346 347 351 346 349
139 129 125 124 121 118 119 123 117 116 118 117 117 117 115 112 107 101 100 104 85 66 47 37 25 16 13 16 13 4 3 359 4 4 359 5 354 355 358 355 354 353 351 359
123 119 120 117 120 124 127 126 122 122 122 123 121 117 118 117 114 109 97 92 85 62 48 30 21 13 10 16 16 7 355 355 6 5 2 5 8 11 6 6 0 359 360 357
122 122 123 126 129 128 127 128 128 129 129 129 128 127 124 119 114 106 99 93 87 58 45 30 23 16 15 17 18 15 7 6 8 6 6 3 2 6 5 8 2 4 3 6
130 131 133 131 131 130 128 128 129 129 132 134 132 133 130 127 125 114 112 98 87 62 46 40 36 27 24 26 35 17 18 13 10 11 11 10 13 7 6 6 5 3 3 6
129 126 126 126 128 130 130 132 134 135 133 134 133 133 130 130 128 117 107 104 98 76 70 63 50 44 43 34 52 16 21 22 19 19 19 17 16 12 10 10 8 4 4 4
126 127 127 128 131 134 135 135 133 132 134 135 138 131 127 130 131 118 113 104 95 89 80 69 61 53 47 39 58 22 30 27 28 23 20 25 17 14 14 10 11 7 7 7
133 132 131 130 130 132 134 137 137 134 137 139 139 140 136 133 126 125 125 109 93 86 82 67 56 52 39 48 38 26 33 27 26 21 20 19 15 14 15 11 11 7 7 6
139 137 135 134 135 134 135 135 136 135 138 140 138 135 128 123 126 131 124 112 94 85 76 62 53 47 45 53 27 34 33 31 23 20 17 16 14 12 12 9 11 6 5 7
142 141 140 140 141 139 137 136 135 133 131 133 135 140 143 136 133 131 117 104 94 79 71 58 47 42 47 38 34 38 38 31 28 25 18 24 13 11 6 6 9 5 5 8
142 143 142 142 142 141 140 139 135 133 133 132 129 125 123 121 114 116 110 97 83 71 58 47 42 42 58 39 38 36 39 31 29 25 23 25 17 14 9 11 8 9 7 7
145 144 144 147 148 149 146 143 142 140 138 136 131 125 119 111 104 99 93 82 65 61 43 41 41 44 58 47 43 40 34 28 29 26 25 24 23 19 14 14 11 13 11 9
144 147 151 149 153 155 155 153 152 151 149 144 140 138 137 132 112 91 85 76 62 53 46 42 41 45 49 50 44 40 36 27 27 23 25 25 24 22 21 20 20 19 17 14
143 144 146 150 153 156 160 161 159 163 159 162 154 159 154 151 143 123 98 74 57 46 39 36 35 39 42 42 41 35 35 26 25 26 24 25 25 25 24 24 24 21 19 17